Weather in Berezovets

Russia / Kostroma Oblast     58°37′59″N   42°16′05″E
temp.,
°C
wind,
m/s
gust,
m/s
humid.,
%
clouds,
%
prec.,
mm/h
press.,
hPa
HPBL,
m
4 august, wed
wed400:00+15wsw23803 0.0 100956
03:00+12sw25920 0.0 1010100
06:00+14wsw28850 0.0 1010224
09:00+19wsw46580 0.0 10121224
12:00+22w464350 0.0 10122194
15:00+22nw46373 0.0 10122245
18:00+20wnw35442 0.0 10131173
21:00+13nnw11620 0.0 101511
5 august, thu
thu500:00+12wsw116364 0.0 101611
03:00+14n0060100 0.0 101611
06:00+14wnw1166100 0.0 101717
09:00+18nne234816 0.0 1018548
12:00+22n223377 0.0 10182509
15:00+22nnw223296 0.0 10172403
18:00+19ene2351100 0.0 1017119
21:00+15ene226095 0.0 101831
6 august, fri
fri600:00+13e2361100 0.0 101869
03:00+13sw1163100 0.1 101814
06:00+11ene2695100 1.3 1019152
09:00+14e4985100 1.5 1017379
12:00+12e41096100 2.6 1018366
15:00+15ese368878 2.7 1017527
18:00+15ese3589100 0.0 1017463
21:00+13e3797100 0.1 1018346
7 august, sat
sat700:00+13e3795100 0.0 1019356
03:00+12e3796100 0.0 1019368
06:00+13e4992100 0.0 1019391
09:00+15e4885100 0.0 1019530
12:00+17ese5879100 0.1 1019889
15:00+16ese4883100 0.1 1019748
18:00+14e31097100 1.0 1019485
21:00+14ese4119898 1.6 1020489
8 august, sun
sun800:00+14ese41298100 0.0 1020505
03:00+14ese41298100 0.6 1019432
06:00+14e4119882 0.4 1019434
09:00+14ese5139676 0.6 1019409
12:00+20se596687 0.0 1019605
15:00+24sse4752100 0.0 1018914
18:00+23se2763100 0.0 1017173
21:00+20ese41179100 0.2 1018272